Other Public Products
Issued by NWS Charleston, SC

Current Version | Previous Version | Graphics & Text | Print | Product List | Glossary On
Versions: 1 2 3 4 5 6 7 8 9 10 11 12 13 14 15 16 17 18 19 20 21 22 23 24 25 26 27 28 29 30 31 32 33 34 35 36 37 38 39 40 41 42 43 44 45 46 47 48 49 50
000
FPUS82 KCHS 220012
OPUCHS

TEST...KCHS/KSAV Gateway Observations...TEST
National Weather Service Charleston SC
700 PM EST WED FEB 21 2018

NOTE: "fair" indicates few or no clouds below 12,000 feet with no
significant weather and/or obstructions to visibility.

SCZ050-WAZ558-NCZ071-TXZ119-213-PAZ071-DCZ001-FLZ074-172-MI076-
NYZ176-178-MAZ016-IL014-TNZ027-NJZ106-GAZ044-MD014-220100-

...Gateway Observations for Charleston International...

CITY           SKY/WX    TMP DP  RH WIND       PRES   REMARKS
Chas Airport   FAIR      72  66  81 S8        30.42R
6HR MIN TEMP:  71; 6HR MAX TEMP:  81; 6HR PCP: TRACE;

Seattle        CLOUDY    33  25  72 S9        30.24F WCI  25
6HR MIN TEMP:  30; 6HR MAX TEMP:  34; 6HR PCP: TRACE;

Charlotte      FAIR      72  63  73 S6        30.39R
6HR MIN TEMP:  72; 6HR MAX TEMP:  80;

Dallas DFW     LGT RAIN  38  36  92 NW14      30.25R WCI  30
6HR MIN TEMP:  34; 6HR MAX TEMP:  39; 6HR PCP:  0.60;

Dallas Love    LGT RAIN  39  37  92 W14       30.27R WCI  31
6HR MIN TEMP:  34; 6HR MAX TEMP:  39; 6HR PCP:  0.61;

Philladelphia  FAIR      71  60  68 SW13G23   30.28R
6HR MIN TEMP:  69; 6HR MAX TEMP:  77;

Wash National  MOCLDY    77  61  57 SW13      30.29R
6HR MIN TEMP:  73; 6HR MAX TEMP:  82;

Baltimore      FAIR      76  61  59 SW7       30.28R
6HR MIN TEMP:  75; 6HR MAX TEMP:  79;

Miami          FAIR      77  66  68 E13G21    30.32R
6HR MIN TEMP:  76; 6HR MAX TEMP:  83;

Detroit        CLOUDY    36  30  79 E7        30.59R WCI  30
6HR MIN TEMP:  36; 6HR MAX TEMP:  43;

Newark         FAIR      74  60  61 SW17G25   30.24R
6HR MIN TEMP:  73; 6HR MAX TEMP:  80;

Laguardia      FAIR      74  59  59 SW9       30.24R
6HR MIN TEMP:  74; 6HR MAX TEMP:  79;

J F K          FAIR      53  50  89 SE5       30.27R
6HR MIN TEMP:  53; 6HR MAX TEMP:  65;

Boston Logan   MOCLDY    65  56  72 SW16      30.18R
6HR MIN TEMP:  65; 6HR MAX TEMP:  72;

Ft. Lauderdale FAIR      76  67  73 E17       30.31S
6HR MIN TEMP:  76; 6HR MAX TEMP:  83;

Chicago O`Hare CLOUDY    29  19  66 NE9       30.61R WCI  20
6HR MIN TEMP:  29; 6HR MAX TEMP:  33;

Chicago Midway CLOUDY    29  20  69 NE14      30.61R WCI  18
6HR MIN TEMP:  29; 6HR MAX TEMP:  33;

Houston Bush   CLOUDY    58  57  97 N6        30.11R FOG
6HR MIN TEMP:  57; 6HR MAX TEMP:  61; 6HR PCP:  1.12;

Houston Hobby  CLOUDY    60  60 100 NW9       30.10R
6HR MIN TEMP:  60; 6HR MAX TEMP:  77; 6HR PCP:  0.50;

Nashville      CLOUDY    52  49  89 N10       30.35R
6HR MIN TEMP:  52; 6HR MAX TEMP:  59; 6HR PCP:  0.13;

Atlanta        FAIR      74  65  73 SE7       30.35S
6HR MIN TEMP:  71; 6HR MAX TEMP:  77;


$$

GAZ044-118-TXZ119-213-NCZ071-DCZ001-MDZ014-506-PAZ021-071-NJZ106-
NYZ176-178-MAZ106-OHZ011-021-055-MIZ076-KYZ091-ILZ014-INZ047-
MNZ060-ONZ431-220100-

...Gateway Observations for Savannah International...

CITY           SKY/WX    TMP DP  RH WIND       PRES   REMARKS
Savannah Arpt  FAIR      72  68  87 SE9       30.41R
6HR MIN TEMP:  72; 6HR MAX TEMP:  84;

Atlanta        FAIR      74  65  73 SE7       30.35S
6HR MIN TEMP:  71; 6HR MAX TEMP:  77;

Charlotte      FAIR      72  63  73 S6        30.39R
6HR MIN TEMP:  72; 6HR MAX TEMP:  80;

Dallas DFW     LGT RAIN  38  36  92 NW14      30.25R WCI  30
6HR MIN TEMP:  34; 6HR MAX TEMP:  39; 6HR PCP:  0.60;

Houston Bush   CLOUDY    58  57  97 N6        30.11R FOG
6HR MIN TEMP:  57; 6HR MAX TEMP:  61; 6HR PCP:  1.12;

Wash National  MOCLDY    77  61  57 SW13      30.29R
6HR MIN TEMP:  73; 6HR MAX TEMP:  82;

Wash Dulles    MOCLDY    75  61  61 S10       30.30R
6HR MIN TEMP:  74; 6HR MAX TEMP:  80;

Baltimore      FAIR      76  61  59 SW7       30.28R
6HR MIN TEMP:  75; 6HR MAX TEMP:  79;

Philadelphia   FAIR      71  60  68 SW13G23   30.28R
6HR MIN TEMP:  69; 6HR MAX TEMP:  77;

Newark         FAIR      74  60  61 SW17G25   30.24R
6HR MIN TEMP:  73; 6HR MAX TEMP:  80;

Laguardia      FAIR      74  59  59 SW9       30.24R
6HR MIN TEMP:  74; 6HR MAX TEMP:  79;

J F K          FAIR      53  50  89 SE5       30.27R
6HR MIN TEMP:  53; 6HR MAX TEMP:  65;

Boston         MOCLDY    65  56  72 SW16      30.18R
6HR MIN TEMP:  65; 6HR MAX TEMP:  72;

Pittsburg      CLOUDY    45  39  79 N13       30.47R
6HR MIN TEMP:  45; 6HR MAX TEMP:  65; 6HR PCP:  0.01;

Akron          LGT RAIN  37  32  82 N13       30.53R WCI  29
6HR MIN TEMP:  37; 6HR MAX TEMP:  43; 6HR PCP: TRACE;

Cleveland      CLOUDY    35  30  82 NE9       30.60R WCI  28
6HR MIN TEMP:  35; 6HR MAX TEMP:  39; 6HR PCP:  0.04;

Cincinnati     LGT RAIN  43  43 100 N14       30.47R
6HR MIN TEMP:  43; 6HR MAX TEMP:  47; 6HR PCP:  0.09;

Columbus       CLOUDY    44  43  96 NE9       30.49R
Detroit        CLOUDY    36  30  79 E7        30.59R WCI  30
6HR MIN TEMP:  36; 6HR MAX TEMP:  43;

Chicago O`Hare CLOUDY    29  19  66 NE9       30.61R WCI  20
6HR MIN TEMP:  29; 6HR MAX TEMP:  33;

Minneapolis    FAIR      18   3  52 SW7       30.64S WCI   9
6HR MIN TEMP:  14; 6HR MAX TEMP:  19;

Indianapolis   LGT RAIN  37  34  89 NE13      30.50F WCI  29
6HR MIN TEMP:  37; 6HR MAX TEMP:  38; 6HR PCP: TRACE;

Toronto Canada NOT AVBL

$$




USA.gov is the U.S. government's official web portal to all federal, state and local government web resources and services.